Regional Weather Roundup
Issued by NWS Grand Forks, ND

Home | Current Version | Previous Version | Graphics & Text | Print | Product List | Glossary On
Versions: 1 2 3 4 5 6 7 8 9 10 11 12 13 14 15 16 17 18 19 20 21 22 23 24 25 26 27 28 29 30 31 32 33 34 35 36 37 38 39 40 41 42 43 44 45 46 47 48 49 50
000
ASUS43 KFGF 230410
RWRFGF
PRAIRIE TO PINES  WEATHER ROUNDUP
NATIONAL WEATHER SERVICE EASTERN NORTH DAKOTA/GRAND FORKS ND
1100 PM CDT FRI SEP 22 2017

 **SATELLITE DATA USED TO AUGMENT SKY COVER AT AUTOMATED STATIONS**
 *****  WEATHER ACROSS EASTERN NORTH DAKOTA  *****

CITY           SKY/WX    TMP DP  RH WIND       PRES   REMARKS
GRAND FORKS    MOCLDY    55  52  89 N23G31    29.76R
GRAND FRKS AFB CLOUDY    53  51  91 N16       29.79R
DEVILS LAKE    CLOUDY    51  48  89 N18       29.89R
FARGO          FAIR      60  54  80 W15       29.75R
WAHPETON ARPT  FAIR      64  55  72 W17       29.76R
$$

 ***** WEATHER ACROSS CENTRAL AND WESTERN NORTH DAKOTA  *****

CITY           SKY/WX    TMP DP  RH WIND       PRES   REMARKS
BISMARCK       CLOUDY    50  45  83 N14G24    29.96R
MINOT          CLOUDY    49  45  86 NW13      29.98S
JAMESTOWN      CLOUDY    52  50  93 N20G25    29.85R
MINOT AFB      CLOUDY    46  45  93 N12       29.98R
GARRISON         N/A     47  44  90 N8G20     29.99R
WILLISTON      FAIR      44  42  93 NW9       30.05S
DICKINSON      NOT AVBL
HETTINGER      CLOUDY    45  39  79 NW13      30.02S
$$

 *****  OTHER AIRPORT OBSERVATIONS IN OUR AREA  *****

CITY           SKY/WX    TMP DP  RH WIND       PRES   REMARKS
WALHALLA       FAIR     N/A N/A N/A N18G24    29.86R
GRAFTON AIRPOR CLOUDY    52  52 100 N22G32    29.80R
VALLEY CITY AR CLOUDY    54  54 100 N18G29    29.83R
CANDO          CLOUDY    50  50 100 N16G29    29.93R
CAVALIER APRT  CLOUDY    52  50  93 N20G28    29.82R
GWINNER        CLEAR     55  52  88 NW15G22   29.80S
SHEYENNE NWR     N/A     58  53  81 NW9       29.95
ROLLA          CLOUDY    46  46 100 N18G24    29.94S FOG
 ***** THE ABOVE OBSERVATIONS ARE NON NWS ARE NOT QUALITY
       CONTROLLED AND MAY MIS-REPORT RAIN FOR SNOW...
$$

  *****  WEATHER ACROSS NORTHERN MINNESOTA  *****

CITY           SKY/WX    TMP DP  RH WIND       PRES   REMARKS
FLAG ISLAND    FAIR      61  61 100 NE14      29.66F
WARROAD        LGT RAIN  64  61  88 N7        29.67S
ROSEAU         MOCLDY    63  57  82 NW17      29.67R
HALLOCK          N/A     55  52  88 N20G26    29.75R
THF RVR FALLS  CLOUDY    61  57  88 NW15      29.70R
BAUDETTE       TSTM      67  67 100 S9        29.64F
WASKISH        FAIR      75  72  88 S8        29.64F
CROOKSTON      CLOUDY    55  54  94 N14G24    29.73R
STEPHEN NDAWN    N/A     54  52  94 N20         N/A
GREENBUSH NDAW   N/A     54  52  94 N12         N/A
$$
  *****  WEATHER ACROSS CENTRAL AND WEST MINNESOTA  *****

CITY           SKY/WX    TMP DP  RH WIND       PRES   REMARKS
FOSSTON        FAIR      75  68  78 W16       29.67R
BEMIDJI        FAIR      78  71  79 S13       29.66F
PARK RAPIDS    FAIR      80  71  74 S15       29.70S
ELBOW LAKE     FAIR      72  65  79 CALM      29.79R
WADENA         FAIR      79  70  73 S13G18    29.72S
DETROIT LAKES  FAIR      75  63  64 W10       29.73R
MOORHEAD       FAIR      61  54  77 NW12      29.76R
FERGUS FALLS   FAIR      72  63  73 SW8       29.74R
MORRIS MN      PTCLDY    72  66  83 S14       29.76R
STAPLES        FAIR      79  68  69 S12G18    29.73S
$$
  *****  WEATHER ELSEWHERE ACROSS MINNESOTA  *****

CITY           SKY/WX    TMP DP  RH WIND       PRES   REMARKS
DULUTH         FAIR      70  65  84 S12       29.81S
INTRNTL FALLS  FAIR      72  69  90 SE8       29.66F
ELY            FAIR      70  64  83 S10       29.78R
CLOQUET        FAIR      66  61  82 SE3       29.81S
WHEATON        FAIR      72  61  68 W7        29.77R
BRAINERD       FAIR      79  69  71 S14       29.75S
HIBBING        FAIR      71  68  90 SE7       29.76S
ALEXANDRIA     MOCLDY    79  65  62 SW22G31   29.82
SAINT CLOUD    FAIR      81  69  67 S14       29.81R
MINNEAPOLIS    MOCLDY    85  69  58 S18G26    29.84S
$$

  *****  WEATHER ACROSS SOUTH DAKOTA  *****

CITY           SKY/WX    TMP DP  RH WIND       PRES   REMARKS
SIOUX FALLS    FAIR      73  67  81 NW5       29.80R
BROOKINGS      FAIR      66  65  96 W5        29.81S
WATERTOWN      FAIR      63  61  93 W9        29.81R
HURON          LGT RAIN  57  55  93 N13       29.85R
SISSETON         N/A     65  59  81 NW12G23   29.76R
ABERDEEN       CLOUDY    57  53  86 N20       29.82S
MITCHELL       FAIR      62  57  83 N7        29.84R
PIERRE         CLOUDY    51  45  79 NW14      29.93F
MOBRIDGE       CLOUDY    52  47  83 N20G30    29.90R
RAPID CITY     CLOUDY    48  36  61 N18       30.02R
$$

  *****  SOME WEATHER IN NEARBY STATES *****

CITY           SKY/WX    TMP DP  RH WIND       PRES   REMARKS
GLASGOW MT     CLOUDY    45  41  86 CALM      30.08F
GREAT FALLS MT CLOUDY    36  34  92 NW3       30.09R
CHEYENNE WY    FAIR      48  36  63 N14G21    29.97F
SCOTTSBLUFF NE FAIR      54  42  64 N10       29.94R
OMAHA NE       FAIR      81  68  64 S17       29.88R
DES MOINES IA  FAIR      77  67  71 SE8       29.94R
DAVENPORT IA   FAIR      73  65  75 S7        30.02S
CHICAGO IL     FAIR      78  66  66 SE9       30.03S
EAU CLAIRE WI  FAIR      79  66  64 S9        29.89R
LA CROSSE WI   FAIR      81  68  64 S8        29.93R
$$

  *****  SOME NATIONAL WEATHER *****

CITY           SKY/WX    TMP DP  RH WIND       PRES   REMARKS
LA GUARDIA NY  FAIR      73  57  57 N10       29.97S
RALEIGH NC     MOCLDY    70  66  87 NE3       30.03F
ATLANTA GA     FAIR      75  68  78 CALM      30.05R
NEW ORLEANS LA CLOUDY    81  75  82 SE3       29.94
OKLAHOMA CITY  FAIR      77  64  64 SE13      29.93S
ALBUQUERQUE NM MOCLDY    70  33  25 SE9       29.89R
SALT LAKE CITY FAIR      47  39  74 N7        29.96F
LOS ANGELES CA FAIR      63  57  81 W14       29.82R
BOISE ID       FAIR      45  40  82 CALM      30.00R
SEATTLE WA     MOCLDY    61  47  59 S3        30.04S
$$

*** WEATHER ACROSS MANITOBA...SASKATCHEWAN AND ONTARIO ***
                ***ONTARIO***

CITY           SKY/WX    TMP DP  RH WIND       PRES   REMARKS
GERALDTON      FOG       61  61 100 SE8       29.93F VSB 1/2
THUNDER BAY    MOCLDY    61  61 100 E10       29.84F
SIOUX LOOKOUT  LGT RAIN  66  66 100 SE7       29.74F
TORONTO        CLEAR     70  50  49 W5        30.09F
BIG TROUT LK   MOCLDY    52  45  76 N5        29.98R
PICKLE LAKE    NOT AVBL
DRYDEN         CLOUDY    66  64  94 N5        29.71R FOG
KENORA         LGT RAIN  59  57  94 NE12G20   29.70F
$$
                *** MANITOBA***

CITY           SKY/WX    TMP DP  RH WIND       PRES   REMARKS
BRANDON        CLOUDY    46  45  93 N13       29.97F
DAUPHIN        CLOUDY    46  45  93 NW6       30.04S
ISLAND LAKE    NOT AVBL
PILOT MOUND      N/A     48  46  93 N14         N/A
THE PAS        LGT RAIN  46  43  87 NE3       30.06S
THOMPSON       DRIZZLE   43  39  87 NE10      30.08S
WINNIPEG       LGT RAIN  50  48  93 N17G28    29.85F
LYNN LAKE      CLOUDY    39  37  93 NE8       30.13F
CHURCHILL      MOCLDY    41  34  75 N21G26    30.14F
GILLAM         CLOUDY    43  39  87 NE20      30.10R
$$
                ***SASKATCHEWAN***

CITY           SKY/WX    TMP DP  RH WIND       PRES   REMARKS
ESTEVAN        CLOUDY    45  45 100 NW8       30.04F
KINDERSLEY     CLOUDY    43  39  87 CALM      30.08R
LLOYDMINSTER   CLOUDY    41  39  93 SW2       30.08F
PRINCE ALBERT  CLOUDY    43  39  87 CALM      30.09F
REGINA         PTCLDY    39  37  93 NW5       30.06F
YORKTON        PTCLDY    45  43  93 NW7       30.05F
N. BATTLEFORD  CLOUDY    41  37  87 N6        30.10S
LA RONGE       CLOUDY    45  41  87 NE3       30.09F
SASKATOON      CLOUDY    45  39  81 CALM      30.09S
SWIFT CURRENT    N/A     41  34  75 VRB2      30.06F
$$
NOTE: THESE ARE AUTOMATED STATIONS WITH LIMITED QUALITY CONTROL
      "FAIR" INDICATES FEW OR NO CLOUDS BELOW 12,000 FEET WITH NO
      SIGNIFICANT WEATHER AND/OR OBSTRUCTIONS TO VISIBILITY.
      SKY/WX - SKY CONDITION AND SIGNIFICANT WEATHER.
      TMP - AIR TEMPERATURE.    DP   - DEWPOINT TEMPERATURE.
      RH  - RELATIVE HUMIDITY.  PRES - PRESSURE.
      HX  - HEAT INDEX.         WCI  - WIND CHILL INDEX.
$




USA.gov is the U.S. government's official web portal to all federal, state and local government web resources and services.